"Period start","avg(HW err(1)/warn(2) (#))","avg(Visibility (m))","avg(Weather code (#))","avg(Precip intensity (mm/h))","min(HW err(1)/warn(2) (#))","max(HW err(1)/warn(2) (#))","std(HW err(1)/warn(2) (#))","med(HW err(1)/warn(2) (#))","min(Visibility (m))","max(Visibility (m))","std(Visibility (m))","med(Visibility (m))","min(Weather code (#))","max(Weather code (#))","std(Weather code (#))","med(Weather code (#))","min(Precip intensity (mm/h))","max(Precip intensity (mm/h))","std(Precip intensity (mm/h))","med(Precip intensity (mm/h))"
2014-10-20 00:00:00,2,14682,75,0.02,2,2,0,2,11049,20663,2677,14216,71,77,3,77,0.00,0.05,0.02,0.00
2014-10-20 00:10:00,2,9624,38,0.03,2,2,0,2,4746,12436,1921,9990,0,77,38,38,0.00,0.15,0.05,0.00
2014-10-20 00:20:00,2,10306,64,0.04,2,2,0,2,4928,16944,4529,9599,0,71,21,71,0.00,0.15,0.05,0.05
2014-10-20 00:30:00,2,5860,72,0.10,2,2,0,2,3051,9735,2071,6395,71,77,2,71,0.00,0.35,0.11,0.05
2014-10-20 00:40:00,2,12323,72,0.08,2,2,0,2,6295,17671,3678,12730,71,77,2,71,0.00,0.20,0.06,0.05
2014-10-20 00:50:00,2,6102,71,0.62,2,2,0,2,3269,19398,4532,4811,71,71,0,71,0.05,1.70,0.48,0.45
2014-10-20 01:00:00,2,6998,71,0.24,2,2,0,2,3220,13230,3457,6318,71,71,0,71,0.05,0.90,0.26,0.15
2014-10-20 01:10:00,2,8994,72,0.30,2,2,0,2,5536,15146,2884,8688,71,77,2,71,0.00,0.85,0.29,0.20
2014-10-20 01:20:00,2,13085,72,0.08,2,2,0,2,9333,17753,2350,13135,71,77,2,71,0.05,0.30,0.07,0.05
2014-10-20 01:30:00,2,11326,73,0.20,2,2,0,2,5338,23375,4552,11146,71,77,3,71,0.00,0.85,0.23,0.10
2014-10-20 01:40:00,2,11476,72,0.14,2,2,0,2,7465,19018,3178,11364,71,77,2,71,0.00,0.65,0.18,0.08
2014-10-20 01:50:00,2,9441,76,0.07,2,2,0,2,7049,11820,1473,9425,71,77,2,77,0.00,0.25,0.07,0.05
2014-10-20 02:00:00,2,6817,77,0.07,2,2,0,2,5890,8890,948,6626,77,77,0,77,0.00,0.25,0.06,0.05
2014-10-20 02:10:00,2,5512,77,0.08,2,2,0,2,3355,8419,1402,5057,77,77,0,77,0.05,0.20,0.05,0.05
2014-10-20 02:20:00,2,5312,77,0.14,2,2,0,2,3442,9347,1926,4864,77,77,0,77,0.05,0.25,0.07,0.15
2014-10-20 02:30:00,2,7297,72,0.21,2,2,0,2,4200,10169,2052,7241,71,77,2,71,0.05,0.65,0.18,0.17
2014-10-20 02:40:00,2,3696,74,0.33,2,2,0,2,2083,7826,1828,2913,71,77,3,74,0.05,1.20,0.33,0.25
2014-10-20 02:50:00,2,4120,73,0.06,2,2,0,2,2497,6360,1186,3586,71,77,3,71,0.00,0.15,0.05,0.05
2014-10-20 03:00:00,2,3982,77,0.14,2,2,0,2,2370,5759,839,3944,77,77,0,77,0.00,0.35,0.11,0.10
2014-10-20 03:10:00,2,25857,60,0.03,2,2,0,2,5969,50000,16557,19578,0,77,30,77,0.00,0.15,0.05,0.00
2014-10-20 03:20:00,2,39399,0,0.00,2,2,0,2,23148,50000,9281,40770,0,0,0,0,0.00,0.00,0.00,0.00
2014-10-20 03:30:00,2,36164,0,0.00,2,2,0,2,23267,46843,7953,37258,0,0,0,0,0.00,0.00,0.00,0.00
2014-10-20 03:40:00,2,20469,36,0.00,2,2,0,2,6886,35195,9056,21946,0,77,36,36,0.00,0.00,0.00,0.00
2014-10-20 03:50:00,2,23394,0,0.00,2,2,0,2,5883,43217,15543,22364,0,0,0,0,0.00,0.00,0.00,0.00
2014-10-20 04:00:00,2,18456,0,0.00,2,2,0,2,8317,45488,13130,11306,0,0,0,0,0.00,0.00,0.00,0.00
2014-10-20 04:10:00,2,24949,0,0.00,2,2,0,2,8963,50000,14919,18260,0,0,0,0,0.00,0.00,0.00,0.00
2014-10-20 04:20:00,2,37557,16,0.02,2,2,0,2,12779,50000,15021,47012,0,40,20,0,0.00,0.05,0.02,0.00
2014-10-20 04:30:00,2,9174,75,0.54,2,2,0,2,1574,22414,8406,3114,71,77,3,77,0.00,1.90,0.64,0.10
2014-10-20 04:40:00,2,7061,71,0.51,2,2,0,2,3865,9993,2338,7004,71,71,0,71,0.15,0.95,0.26,0.42
2014-10-20 04:50:00,2,11616,71,0.40,2,2,0,2,3724,18137,4655,11266,71,71,0,71,0.10,0.85,0.23,0.40
2014-10-20 05:00:00,2,11104,71,0.23,2,2,0,2,5390,18538,4458,10904,71,71,0,71,0.05,0.45,0.15,0.20
2014-10-20 05:10:00,2,8803,71,0.10,2,2,0,2,4497,15995,3550,8238,71,71,0,71,0.00,0.50,0.14,0.05
2014-10-20 05:20:00,2,18363,76,0.02,2,2,0,2,15557,23553,2222,17819,71,77,2,77,0.00,0.05,0.02,0.00
2014-10-20 05:30:00,2,12665,76,0.06,2,2,0,2,9138,29663,5783,10878,71,77,2,77,0.00,0.10,0.03,0.05
2014-10-20 05:40:00,2,15480,75,0.02,2,2,0,2,4308,29467,7706,14631,71,77,3,77,0.00,0.05,0.02,0.00
2014-10-20 05:50:00,2,10671,77,0.07,2,2,0,2,7483,15369,2124,10622,77,77,0,77,0.00,0.25,0.07,0.05
2014-10-20 06:00:00,2,10150,72,0.37,2,2,0,2,8355,12808,1525,10145,71,77,2,71,0.15,0.60,0.15,0.38
2014-10-20 06:10:00,2,7796,71,0.60,2,2,0,2,5022,12785,2671,6504,71,71,0,71,0.15,1.10,0.30,0.53
2014-10-20 06:20:00,2,8070,71,0.27,2,2,0,2,4172,12488,2446,7622,71,71,0,71,0.00,1.40,0.40,0.12
2014-10-20 06:30:00,2,7488,77,0.07,2,2,0,2,2567,15043,4470,6386,77,77,0,77,0.00,0.15,0.05,0.10
2014-10-20 06:40:00,2,4658,75,0.05,2,2,0,2,2034,9527,2267,4782,71,77,3,77,0.00,0.15,0.06,0.00
2014-10-20 06:50:00,2,6173,76,0.03,2,2,0,2,2059,14519,4139,4950,71,77,2,77,0.00,0.10,0.03,0.00
2014-10-20 07:00:00,2,2159,77,0.08,2,2,0,2,1313,3101,516,2126,77,77,0,77,0.05,0.15,0.04,0.08
2014-10-20 07:10:00,2,1393,75,0.39,2,2,0,2,1204,1669,128,1378,71,77,3,77,0.15,0.50,0.10,0.40
2014-10-20 07:20:00,2,1981,71,0.54,2,2,0,2,1119,3091,782,1609,71,71,0,71,0.10,1.15,0.31,0.50
2014-10-20 07:30:00,2,2125,73,0.19,2,2,0,2,1521,3457,606,1911,71,77,3,71,0.05,0.45,0.12,0.15
2014-10-20 07:40:00,2,4201,76,0.44,2,2,0,2,1191,8775,2933,3066,71,77,2,77,0.25,0.65,0.11,0.47
2014-10-20 07:50:00,2,8443,71,0.18,2,2,0,2,3607,16369,3937,8383,71,71,0,71,0.00,0.65,0.21,0.12
2014-10-20 08:00:00,2,18975,53,0.01,2,2,0,2,8074,49294,14664,10695,10,71,28,71,0.00,0.05,0.02,0.00
2014-10-20 08:10:00,2,42080,1,0.00,2,2,0,2,12637,50000,12197,49092,0,10,3,0,0.00,0.00,0.00,0.00
2014-10-20 08:20:00,2,4830,6,0.00,2,2,0,2,2579,11631,2576,3618,0,10,5,10,0.00,0.00,0.00,0.00
2014-10-20 08:30:00,2,2965,10,0.00,2,2,0,2,1940,5233,1144,2396,10,10,0,10,0.00,0.00,0.00,0.00
2014-10-20 08:40:00,2,1551,50,0.16,2,2,0,2,1318,1802,135,1540,10,77,29,58,0.00,0.35,0.14,0.23
2014-10-20 08:50:00,2,1901,76,0.11,2,2,0,2,1623,2341,219,1902,71,77,2,77,0.00,0.45,0.14,0.05
2014-10-20 09:00:00,2,3840,75,0.01,2,2,0,2,1744,8036,2080,3064,71,77,3,77,0.00,0.05,0.02,0.00
2014-10-20 09:10:00,2,2574,75,0.15,2,2,0,2,1357,4796,1076,2204,71,77,3,77,0.00,0.50,0.16,0.10
2014-10-20 09:20:00,2,4895,76,0.03,2,2,0,2,1885,9618,2260,4628,71,77,2,77,0.00,0.10,0.04,0.00
2014-10-20 09:30:00,2,5141,76,0.03,2,2,0,2,2535,8159,1811,5138,71,77,2,77,0.00,0.10,0.04,0.00
2014-10-20 09:40:00,2,3608,77,0.19,2,2,0,2,1706,6087,1471,3621,77,77,0,77,0.05,0.30,0.08,0.20
2014-10-20 09:50:00,2,5648,73,0.33,2,2,0,2,1461,8977,2290,6228,71,77,3,71,0.15,0.60,0.12,0.30
2014-10-20 10:00:00,2,3417,71,0.83,2,2,0,2,2068,5080,974,3321,71,71,0,71,0.25,1.85,0.54,0.62
2014-10-20 10:10:00,2,3710,71,1.19,2,2,0,2,2665,4792,727,3544,71,71,0,71,0.75,1.90,0.35,1.05
2014-10-20 10:20:00,2,7410,71,0.72,2,2,0,2,4591,13711,3385,5418,71,71,0,71,0.05,1.50,0.54,0.68
2014-10-20 10:30:00,2,22401,73,0.02,2,2,0,2,14516,39238,6716,20967,71,77,3,71,0.00,0.05,0.02,0.00
2014-10-20 10:40:00,2,19570,74,0.08,2,2,0,2,5661,32168,9944,23526,71,77,3,74,0.00,0.25,0.07,0.05
2014-10-20 10:50:00,2,7192,71,0.33,2,2,0,2,2695,13313,4132,6046,71,71,0,71,0.10,1.00,0.30,0.20
2014-10-20 11:00:00,2,22458,53,0.02,2,2,0,2,3751,44285,15240,20904,10,77,28,71,0.00,0.10,0.03,0.00
2014-10-20 11:10:00,2,22708,1,0.00,2,2,0,2,9752,40427,9369,22924,0,10,3,0,0.00,0.00,0.00,0.00
2014-10-20 11:20:00,2,25289,0,0.00,2,2,0,2,10195,50000,14803,19022,0,0,0,0,0.00,0.00,0.00,0.00
2014-10-20 11:30:00,2,9913,6,0.00,2,2,0,2,3606,15262,3676,10410,0,10,5,10,0.00,0.00,0.00,0.00
2014-10-20 11:40:00,2,7534,10,0.00,2,2,0,2,3459,12570,2233,7297,10,10,0,10,0.00,0.00,0.00,0.00
2014-10-20 11:50:00,2,6251,10,0.00,2,2,0,2,2631,18019,5486,3618,10,10,0,10,0.00,0.00,0.00,0.00
2014-10-20 12:00:00,2,6124,13,0.03,2,2,0,2,1891,16133,4494,4730,10,41,9,10,0.00,0.25,0.08,0.00
2014-10-20 12:10:00,2,3784,65,0.08,2,2,0,2,1531,7407,1831,3222,41,77,16,74,0.00,0.35,0.10,0.05
2014-10-20 12:20:00,2,5291,76,0.04,2,2,0,2,2030,11667,3168,4227,71,77,2,77,0.00,0.10,0.04,0.03
2014-10-20 12:30:00,2,25356,36,0.01,2,2,0,2,3226,50000,16894,29683,10,77,32,10,0.00,0.05,0.02,0.00
2014-10-20 12:40:00,2,22850,6,0.04,2,2,0,2,1871,50000,19736,13937,0,41,12,0,0.00,0.45,0.13,0.00
2014-10-20 12:50:00,2,36174,41,0.15,2,2,0,2,1810,50000,18154,46770,41,41,0,41,0.00,1.40,0.42,0.00
2014-10-20 13:00:00,2,31290,16,0.01,2,2,0,2,4877,50000,16569,37265,0,41,20,0,0.00,0.05,0.02,0.00
2014-10-20 13:10:00,2,42911,67,0.02,2,2,0,2,27558,50000,8283,46459,40,77,14,71,0.00,0.10,0.03,0.00
2014-10-20 13:20:00,2,46956,74,0.00,2,2,0,2,36987,50000,4057,49260,71,77,3,74,0.00,0.00,0.00,0.00
2014-10-20 13:30:00,2,33251,75,0.00,2,2,0,2,28010,36234,2459,33804,71,77,3,77,0.00,0.00,0.00,0.00
2014-10-20 13:40:00,2,48634,0,0.00,2,2,0,2,38648,50000,3399,50000,0,0,0,0,0.00,0.00,0.00,0.00
2014-10-20 13:50:00,2,50000,0,0.00,2,2,0,2,50000,50000,0,50000,0,0,0,0,0.00,0.00,0.00,0.00
2014-10-20 14:00:00,2,50000,0,0.00,2,2,0,2,50000,50000,0,50000,0,0,0,0,0.00,0.00,0.00,0.00
2014-10-20 14:10:00,2,15434,7,0.00,2,2,0,2,1612,50000,19823,2435,0,40,12,0,0.00,0.00,0.00,0.00
2014-10-20 14:20:00,2,6930,38,0.59,2,2,0,2,1174,26615,7256,4644,10,41,9,41,0.00,2.65,0.86,0.08
2014-10-20 14:30:00,2,15918,8,0.00,2,2,0,2,6490,42386,11258,10904,0,10,4,10,0.00,0.00,0.00,0.00
2014-10-20 14:40:00,2,3114,18,0.19,2,2,0,2,1354,4695,973,3302,0,41,15,10,0.00,1.40,0.42,0.00
2014-10-20 14:50:00,2,1116,70,1.64,2,2,0,2,893,1533,208,1062,41,77,14,77,0.40,2.50,0.71,1.80
2014-10-20 15:00:00,2,6331,56,0.11,2,2,0,2,1390,12041,3895,5615,10,77,30,74,0.00,0.40,0.13,0.05
2014-10-20 15:10:00,2,20945,45,0.00,2,2,0,2,6410,49663,13495,16228,0,77,37,71,0.00,0.00,0.00,0.00
2014-10-20 15:20:00,2,4132,59,0.33,2,2,0,2,1471,17032,4572,2146,0,77,30,71,0.00,0.65,0.25,0.30
2014-10-20 15:30:00,2,7009,64,0.04,2,2,0,2,2906,14706,3648,5990,10,77,27,77,0.00,0.20,0.06,0.00
2014-10-20 15:40:00,2,17340,7,0.00,2,2,0,2,8065,24750,6103,20094,0,10,5,10,0.00,0.00,0.00,0.00
2014-10-20 15:50:00,2,19847,0,0.00,2,2,0,2,14998,27115,4404,18225,0,0,0,0,0.00,0.00,0.00,0.00
2014-10-20 16:00:00,2,25843,0,0.00,2,2,0,2,16475,41604,8441,24501,0,0,0,0,0.00,0.00,0.00,0.00
2014-10-20 16:10:00,2,48437,0,0.00,2,2,0,2,43451,50000,2258,50000,0,0,0,0,0.00,0.00,0.00,0.00
2014-10-20 16:20:00,2,40174,0,0.00,2,2,0,2,20806,50000,9993,43252,0,0,0,0,0.00,0.00,0.00,0.00
2014-10-20 16:30:00,2,41201,0,0.00,2,2,0,2,21787,50000,8509,43960,0,0,0,0,0.00,0.00,0.00,0.00
2014-10-20 16:40:00,2,44978,0,0.00,2,2,0,2,32401,50000,7090,50000,0,0,0,0,0.00,0.00,0.00,0.00
2014-10-20 16:50:00,2,48636,0,0.00,2,2,0,2,43815,50000,2010,50000,0,0,0,0,0.00,0.00,0.00,0.00
2014-10-20 17:00:00,2,16236,0,0.00,2,2,0,2,4904,50000,15988,8809,0,0,0,0,0.00,0.00,0.00,0.00
2014-10-20 17:10:00,2,4712,9,0.00,2,2,0,2,1789,11683,2724,4568,0,10,3,10,0.00,0.00,0.00,0.00
2014-10-20 17:20:00,2,1476,63,0.42,2,2,0,2,827,2860,652,1187,10,77,23,77,0.00,1.10,0.37,0.30
2014-10-20 17:30:00,2,4713,76,0.40,2,2,0,2,1192,13218,3488,4278,71,77,2,77,0.00,1.35,0.52,0.08
2014-10-20 17:40:00,2,5458,16,0.10,2,2,0,2,1860,10729,3547,3932,10,41,12,10,0.00,0.65,0.21,0.00
2014-10-20 17:50:00,2,3386,52,0.34,2,2,0,2,1021,12936,3346,2100,41,77,16,41,0.00,0.80,0.27,0.28
2014-10-20 18:00:00,2,1364,75,1.07,2,2,0,2,639,1841,346,1437,71,77,3,77,0.30,2.10,0.59,0.88
2014-10-20 18:10:00,2,13428,10,0.07,2,2,0,2,1619,18905,4817,13898,0,71,21,0,0.00,0.75,0.23,0.00
2014-10-20 18:20:00,2,23648,0,0.00,2,2,0,2,11618,33068,7226,25920,0,0,0,0,0.00,0.00,0.00,0.00
2014-10-20 18:30:00,2,17886,0,0.00,2,2,0,2,7342,37088,7836,16314,0,0,0,0,0.00,0.00,0.00,0.00
2014-10-20 18:40:00,2,7929,4,0.00,2,2,0,2,3972,11748,2080,8047,0,10,5,0,0.00,0.00,0.00,0.00
2014-10-20 18:50:00,2,12146,10,0.00,2,2,0,2,5489,27268,6418,9590,10,10,0,10,0.00,0.00,0.00,0.00
2014-10-20 19:00:00,2,6944,21,0.24,2,2,0,2,2479,19875,5913,3752,0,41,16,10,0.00,0.70,0.29,0.00
2014-10-20 19:10:00,2,3676,50,0.64,2,2,0,2,2289,6222,1352,3227,41,71,14,41,0.05,1.65,0.47,0.50
2014-10-20 19:20:00,2,11465,71,0.15,2,2,0,2,2845,18486,5760,13758,71,71,0,71,0.00,0.30,0.10,0.17
2014-10-20 19:30:00,2,24015,71,0.08,2,2,0,2,12333,38439,9438,22627,71,71,0,71,0.00,0.50,0.15,0.00
2014-10-20 19:40:00,2,9758,71,0.47,2,2,0,2,6736,16496,2471,9485,71,71,0,71,0.00,1.35,0.39,0.40
2014-10-20 19:50:00,2,10325,71,0.47,2,2,0,2,7694,12745,1739,10499,71,71,0,71,0.20,1.15,0.27,0.35
2014-10-20 20:00:00,2,11859,71,0.22,2,2,0,2,8587,13329,1496,12394,71,71,0,71,0.05,0.55,0.15,0.20
2014-10-20 20:10:00,2,12789,71,0.32,2,2,0,2,9591,16738,2128,12155,71,71,0,71,0.05,1.20,0.34,0.17
2014-10-20 20:20:00,2,15637,72,0.07,2,2,0,2,5650,27016,6537,16606,71,77,2,71,0.00,0.20,0.07,0.05
2014-10-20 20:30:00,2,19868,72,0.03,2,2,0,2,6198,41525,13119,14302,71,77,2,71,0.00,0.15,0.06,0.00
2014-10-20 20:40:00,2,38289,14,0.01,2,2,0,2,17452,47384,9233,40504,0,71,28,0,0.00,0.05,0.02,0.00
2014-10-20 20:50:00,2,33165,43,0.00,2,2,0,2,26242,37355,3342,34399,0,71,35,71,0.00,0.00,0.00,0.00
2014-10-20 21:00:00,2,38536,0,0.00,2,2,0,2,19851,50000,7717,40392,0,0,0,0,0.00,0.00,0.00,0.00
2014-10-20 21:10:00,2,10721,71,0.11,2,2,0,2,8290,13274,1314,10635,71,71,0,71,0.00,0.45,0.12,0.05
2014-10-20 21:20:00,2,6884,71,0.26,2,2,0,2,5285,9193,1146,6768,71,71,0,71,0.00,0.45,0.14,0.30
2014-10-20 21:30:00,2,6768,71,0.42,2,2,0,2,5897,8032,646,6808,71,71,0,71,0.25,0.70,0.16,0.42
2014-10-20 21:40:00,2,7314,71,0.26,2,2,0,2,6099,8689,699,7402,71,71,0,71,0.00,0.70,0.22,0.17
2014-10-20 21:50:00,2,8677,75,0.06,2,2,0,2,7586,9551,652,8731,71,77,3,77,0.00,0.20,0.06,0.05
2014-10-20 22:00:00,2,11000,73,0.08,2,2,0,2,7621,16159,2960,10174,71,77,3,71,0.00,0.45,0.13,0.05
2014-10-20 22:10:00,2,15404,74,0.00,2,2,0,2,13793,17361,1337,15078,71,77,3,74,0.00,0.00,0.00,0.00
2014-10-20 22:20:00,2,19079,73,0.00,2,2,0,2,16065,24719,2958,17554,71,77,3,71,0.00,0.00,0.00,0.00
2014-10-20 22:30:00,2,43564,30,0.00,2,2,0,2,33786,50000,5932,45400,0,77,36,0,0.00,0.00,0.00,0.00
2014-10-20 22:40:00,2,49362,0,0.00,2,2,0,2,45657,50000,1376,50000,0,0,0,0,0.00,0.00,0.00,0.00
2014-10-20 22:50:00,2,48626,0,0.00,2,2,0,2,46559,50000,1346,48747,0,0,0,0,0.00,0.00,0.00,0.00
2014-10-20 23:00:00,2,48719,0,0.00,2,2,0,2,43808,50000,1884,49772,0,0,0,0,0.00,0.00,0.00,0.00
2014-10-20 23:10:00,2,49596,0,0.00,2,2,0,2,47466,50000,795,50000,0,0,0,0,0.00,0.00,0.00,0.00
2014-10-20 23:20:00,2,46556,0,0.00,2,2,0,2,39184,50000,3846,48808,0,0,0,0,0.00,0.00,0.00,0.00
2014-10-20 23:30:00,2,12235,58,0.13,2,2,0,2,8197,34378,7499,9828,0,71,23,71,0.00,0.40,0.13,0.08
2014-10-20 23:40:00,2,5952,71,0.91,2,2,0,2,3691,8852,1929,5900,71,71,0,71,0.30,1.70,0.46,0.90
2014-10-20 23:50:00,2,4924,71,0.31,2,2,0,2,3916,6538,823,4608,71,71,0,71,0.05,0.70,0.21,0.20
